Regional Weather Roundup
Issued by NWS

Home | Current Version | Previous Version | Graphics & Text | Print | Product List | Glossary On
Versions: 1 2 3 4 5 6 7 8 9 10 11 12 13 14 15 16 17 18 19 20 21 22 23 24 25 26 27 28 29 30 31 32 33 34 35 36 37 38 39 40 41 42 43 44 45 46 47 48 49 50
000
ASUS43 KIND 290909
RWRIN

WEATHER ROUNDUP FOR INDIANA
NATIONAL WEATHER SERVICE INDIANAPOLIS IN
500 AM EDT WED MAR 29 2017

NOTE: "FAIR" INDICATES FEW OR NO CLOUDS BELOW 12,000 FEET WITH NO
SIGNIFICANT WEATHER AND/OR OBSTRUCTIONS TO VISIBILITY.

* - STATION DOES NOT REPORT WEATHER SUCH AS PRECIPITATION OR FOG.

+ - STATION NOT QUALITY CONTROLLED BY THE NATIONAL WEATHER SERVICE.
    USE DATA WITH CAUTION...ESPECIALLY DEWPOINT AND RELATIVE
    HUMIDITY OBSERVATIONS.

INZ001>003-010>013-019-020-291000-
NORTHWEST INDIANA

CITY           SKY/WX    TMP DP  RH WIND       PRES   REMARKS
GARY /AIRPORT/ FOG       37  37 100 NE8       30.23R VSB 1/2
KNOX *+        CLEAR     36  28  75 NE6       30.20R
LA PORTE +     CLEAR     37  36  95 NE5       30.21R
MICHIGAN CITY+ PTCLDY    32  32 100 CALM      30.23R FOG
MONTICELLO +   CLOUDY    46  41  83 E8        30.17R
RENSSELAER +   CLOUDY    45  43  93 NE9       30.19R
VALPARAISO     CLEAR     37  36  96 NE7       30.21R

$$

LMZ046-743>745-291000-
SOUTHERN LAKE MICHIGAN

STATION/POSITION TIME  TEMP    WIND        PRES    WAVE
                       AIR SEA DIR/SP/G            HT
                 (UTC) (F)     (DEG/KT/KT) (MB)    (FT)
BURNS HARBOR     0901   35      40/ 10/ 12 1023.7
MICHIGAN CITY    0840   36      20/  8/  8   N/A

$$

INZ004-005-014>016-021>024-291000-
NORTH CENTRAL INDIANA

CITY           SKY/WX    TMP DP  RH WIND       PRES   REMARKS
GOSHEN         CLEAR     33  30  88 NE6       30.20F FOG     WCI  28
LOGANSPORT +   CLOUDY    45  41  87 E8        30.19R
PERU/GRISSOM   CLOUDY    45  43  93 E12       30.16R
SOUTH BEND     CLEAR     36  35  96 NE6       30.21S
WARSAW +       CLEAR     36  34  93 NE3       30.19F

$$

INZ006>009-017-018-025>027-291000-
NORTHEAST INDIANA

CITY           SKY/WX    TMP DP  RH WIND       PRES   REMARKS
ANGOLA *+      CLEAR     30  30 100 CALM      30.20S
AUBURN +       CLEAR     36  32  87 NE6       30.21S
FORT WAYNE     PTCLDY    39  35  86 NE9       30.19F
HUNTINGTON +   CLEAR     39  38  94 NE5       30.17F
KENDALLVILLE + CLEAR     33  33 100 NE6       30.19F WCI  27

$$

INZ028-029-035-036-043>045-051>053-291000-
WEST CENTRAL INDIANA

CITY           SKY/WX    TMP DP  RH WIND       PRES   REMARKS
CRAWFORDSVL +  CLOUDY    46  46 100 NE7       30.15R
GREENCASTLE +  CLOUDY    46  46 100 NE7       30.13S
LAFAYETTE      CLOUDY    46  44  93 NE15      30.16R
TERRE HAUTE    CLOUDY    49  43  80 NE6       30.13R

$$

INZ030>032-037>040-046>048-054>057-064-065-291000-
CENTRAL INDIANA

CITY           SKY/WX    TMP DP  RH WIND       PRES   REMARKS
CP ATTERBURY + CLOUDY    50  45  81 E9        30.13F
FISHERS *+     CLOUDY    45  45 100 NE5       30.14F
FRANKFORT +    CLOUDY    48  46  91 E9        30.17R
GREENWOOD *+   CLOUDY    49  45  85 E8        30.14S
INDIANAPOLIS   CLOUDY    49  44  83 E12       30.12F
-EAGLE CREEK   CLOUDY    49  43  80 E12G17    30.13S
KOKOMO +       CLOUDY    45  41  86 E10       30.17F
MARION +       CLOUDY    44  40  86 E8        30.17F
MT COMFORT *+  CLOUDY    46  45  93 NE9       30.14S
SHELBYVILLE    CLOUDY    50  43  77 E9        30.13F
ZIONSVILLE +   CLOUDY    45  44  95 E10       30.15R

$$

INZ033-034-041-042-049-050-058-059-291000-
EAST CENTRAL INDIANA

CITY           SKY/WX    TMP DP  RH WIND       PRES   REMARKS
MUNCIE         CLOUDY    46  42  86 E9        30.15F
RICHMOND +     PTCLDY    41  37  87 NE8       30.16R

$$

INZ060-061-067>069-081>083-085>088-291000-
SOUTHWEST INDIANA

CITY           SKY/WX    TMP DP  RH WIND       PRES   REMARKS
EVANSVILLE     CLOUDY    53  48  83 NE9       30.09S
HUNTINGBURG *+ MOCLDY    48  46  93 NE5       30.09S
WASHINGTON +   PTCLDY    48  46  92 MISG      30.11R

$$

INZ062-063-066-070>080-084-089>092-291000-
SOUTH CENTRAL AND SOUTHEAST INDIANA

CITY           SKY/WX    TMP DP  RH WIND       PRES   REMARKS
BEDFORD +      CLOUDY    52  46  82 NE7       30.10S
BLOOMINGTON    CLOUDY    51  45  79 E7        30.11F
MADISON *+     CLOUDY    50  45  81 NE10      30.13S
NORTH VERNON + CLOUDY   N/A N/A N/A NE7       30.13S
SEYMOUR +      CLOUDY    52  48  87 NE8       30.12R

$$





USA.gov is the U.S. government's official web portal to all federal, state and local government web resources and services.